Regional Weather Roundup
Issued by NWS

Home | Current Version | Previous Version | Text Only | Print | Product List | Glossary Off
Versions: 1 2 3 4 5 6 7 8 9 10 11 12 13 14 15 16 17 18 19 20 21 22 23 24 25 26 27 28 29 30 31 32 33 34 35 36 37 38 39 40 41 42 43 44 45 46 47 48 49 50

000
ASUS43 KMPX 202310
RWRMN
WEATHER ROUNDUP FOR MINNESOTA
NATIONAL WEATHER SERVICE TWIN CITIES/CHANHASSEN MN
500 PM CST SAT DEC 20 2014


NOTE: "FAIR" INDICATES FEW OR NO CLOUDS BELOW 12,000 FEET WITH NO
SIGNIFICANT WEATHER AND/OR OBSTRUCTIONS TO VISIBILITY. N/A MEANS
CURRENT SKY AND/OR WEATHER CONDITIONS ARE NOT AVAILABLE.

MNZ060>063-068>070-210000-
   Twin Cities Metro

CITY           SKY/WX    TMP DP  RH WIND       PRES   REMARKS
TWIN CITIES    CLOUDY    32  26  78 S9        30.12S WCI  24
ST PAUL        CLOUDY    32  28  85 S8        30.13F WCI  25
CRYSTAL        FLURRIES  32  28  85 S7        30.10F WCI  26
BLAINE         CLOUDY    34  30  86 S7        30.11S WCI  28
LAKEVILLE      CLOUDY    30  27  86 S7        30.11S WCI  23
EDEN PRAIRIE   CLOUDY    31  27  85 S13       30.11R WCI  21
SOUTH ST PAUL  CLOUDY    33  28  84 S5        30.12S WCI  28
LAKE ELMO      CLOUDY    32  30  93 SE5       30.13S WCI  27
$$
MNZ001>005-007-008-013>017-022>024-027-028-210000-
   Northwest Minnesota

CITY           SKY/WX    TMP DP  RH WIND       PRES   REMARKS
BEMIDJI        CLOUDY    28  28  98 S8        29.98S FOG     WCI  20
HALLOCK        FOG       28  28 100 CALM      29.93S VSB 1
ROSEAU         CLOUDY    30  27  86 S7        29.95F HAZE    WCI  23
WARROAD        CLOUDY    30  27  86 S9        29.96F FOG     WCI  22
THIEF RVR FALL CLOUDY    28  27  93 S10       29.95F WCI  19
CROOKSTON      CLOUDY    30  28  93 S16       29.96S FOG     WCI  19
FOSSTON        CLOUDY    27  27 100 S13       29.96F FOG     WCI  16
DETROIT LAKES  CLOUDY    30  30 100 S17       29.97F FOG     WCI  18
MOORHEAD       CLOUDY    30  30 100 S14       29.98S FOG     WCI  20
PARK RAPIDS    CLOUDY    30  27  88 S15       29.99S WCI  19
MAHNOMEN       CLOUDY    29  28  95 S10       29.96F FOG     WCI  20
$$
MNZ006-009>011-018-025>026-210000-
   North Central Minnesota

CITY           SKY/WX    TMP DP  RH WIND       PRES   REMARKS
BAUDETTE       CLOUDY    30  27  88 S7        29.97F WCI  23
FLAG ISLAND    CLOUDY    28  27  93 S8        29.95F WCI  20
INTL FALLS     CLOUDY    30  28  92 S5        30.00S FOG     WCI  25
WASKISH        CLOUDY    30  28  93 CALM      29.99S FOG
BIG FORK       MIX PCPN  30  28  93 S10       30.01S WCI  21
LONGVILLE      CLOUDY    28  27  93 S9        30.02S FOG     WCI  20
GRAND RAPIDS   CLOUDY    28  27  93 S13       30.02F WCI  18
CRANE LAKE     CLOUDY    28  27  93 S5        30.06S FOG     WCI  23
ORR            CLOUDY    28  27  93 S6        30.00S WCI  22
COOK           CLOUDY    28  27  93 S6        30.04S FOG     WCI  22
WALKER         CLOUDY    28  27  95 S8        30.00S FOG     WCI  20
$$
MNZ012-019>021-037-210000-
   Northeast Minnesota

CITY           SKY/WX    TMP DP  RH WIND       PRES   REMARKS
DULUTH         CLOUDY    30  25  81 S9        30.06S WCI  22
ELY            CLOUDY    28  27  93 S9        30.04F WCI  20
HIBBING        CLOUDY    30  26  85 S9        30.04S FOG     WCI  22
EVELETH        CLOUDY    30  28  93 S9        30.05S FOG     WCI  22
DULUTH HARBOR  CLOUDY    34  28  80 CALM      30.12S
TWO HARBORS    CLOUDY    34  28  80 S5        30.08S WCI  30
SILVER BAY     CLOUDY    32  28  86 S5        30.08S WCI  27
GRAND MARAIS     N/A     34  29  82 S13       30.13F WCI  25
G MARAIS ARPRT CLOUDY    27  23  86 S5        30.08S FOG     WCI  21
$$
MNZ029>031-032-039>041-046>048-054>057-064-210000-
   West Central Minnesota

CITY           SKY/WX    TMP DP  RH WIND       PRES   REMARKS
FERGUS FALLS   CLOUDY    30  28  93 S15       30.01S FOG     WCI  19
WHEATON        CLOUDY    30  27  86 SE15      29.99F FOG     WCI  19
MORRIS         PTCLDY    32  30  93 S14       30.00S FOG     WCI  22
ALEXANDRIA     CLOUDY    30  28  92 S14       30.02S WCI  19
ELBOW LAKE     CLOUDY    31  29  94 S18       29.99S FOG     WCI  19
WADENA         CLOUDY    28  27  93 S10       30.00S FOG     WCI  19
GLENWOOD       CLOUDY    30  28  93 S14       30.03R FOG     WCI  20
APPLETON       CLOUDY    34  28  80 S9        30.02S WCI  26
BENSON         CLOUDY    32  28  86 S12       30.03S WCI  23
ORTONVILLE     CLOUDY    32  28  86 S8        29.99F WCI  25
MADISON        PTCLDY    36  34  93 S10       30.01F FOG
WILLMAR        CLOUDY    32  28  86 S7        30.06S WCI  26
$$
MNZ033>034-036-042>043-049>051-058-059-210000-
   Central Minnesota

CITY           SKY/WX    TMP DP  RH WIND       PRES   REMARKS
ST CLOUD       CLOUDY    31  26  82 S13       30.08S WCI  21
SAUK CENTRE    CLOUDY    30  28  93 S14       30.04S WCI  19
PAYNESVILLE    CLOUDY    28  27  96 SE12      30.06S WCI  17
AITKIN         CLOUDY    30  27  86 S6        30.04S HAZE    WCI  24
PINE RIVER     CLOUDY    28  27  93 S12       30.06S WCI  18
BRAINERD       CLOUDY    29  26  89 S15       30.05S WCI  18
STAPLES        CLOUDY    28  27  93 S8        30.02S WCI  20
LONG PRAIRIE   CLOUDY    30  28  93 SE10      30.03S WCI  21
LITTLE FALLS   CLOUDY    30  27  86 S7        30.06S WCI  23
LITCHFIELD     CLOUDY    30  30 100 SE7       30.07F WCI  23
BUFFALO        CLOUDY    30  26  85 SE9       30.11S WCI  21
MAPLE LAKE     CLOUDY    31  28  90 S8        30.10S WCI  23
$$
MNZ037-044-045-052-053-210000-
   East Central Minnesota

CITY           SKY/WX    TMP DP  RH WIND       PRES   REMARKS
PRINCETON      CLOUDY    30  27  86 S8        30.09F WCI  23
MORA           CLOUDY    32  28  86 S8        30.11S WCI  25
CAMBRIDGE      CLOUDY    34  25  69 S8        30.08F WCI  27
RUSH CITY      CLOUDY    31  28  88 S5        30.10F WCI  27
MOOSE LAKE     CLOUDY    32  28  86 S7        30.07R FOG     WCI  26
HINCKLEY       CLOUDY    32  30  93 CALM      30.10S
CLOQUET        CLOUDY    30  27  86 S9        30.07S WCI  22
MCGREGOR       CLOUDY    30  28  93 S9        30.06F WCI  22
$$
MNZ071>073-080-081-089-090-097-098-210000-
   Southwest Minnesota

CITY           SKY/WX    TMP DP  RH WIND       PRES   REMARKS
MONTEVIDEO     CLOUDY    30  30 100 SW10G16   30.04S FOG     WCI  21
GRANITE FALLS  CLOUDY    32  29  90 S14       30.05S WCI  22
CANBY          CLOUDY    32  30  92 S6        30.01F FOG     WCI  26
MARSHALL       CLOUDY    30  27  86 S16       30.03S WCI  19
REDWOOD FALLS  CLOUDY    32  28  85 S12       30.06S WCI  23
OLIVIA         CLOUDY    32  30  93 S12       30.05S WCI  23
PIPESTONE      FOG       28  28 100 S5        29.99F VSB 3/4 WCI  23
WINDOM         CLOUDY    30  28  93 S10       30.05S WCI  21
WORTHINGTON    CLOUDY    28  28 100 S10       30.05S WCI  19
JACKSON        CLOUDY    32  28  86 S9        30.06F WCI  24
TRACY          CLOUDY    32  30  93 S8G17     30.03F FOG     WCI  24
SLAYTON        CLOUDY    29  29 100 S7        30.03S FOG     WCI  22
$$
MNZ065>067-074>077-082>085-091>093-210000-
   South Central Minnesota

CITY           SKY/WX    TMP DP  RH WIND       PRES   REMARKS
MANKATO        CLOUDY    30  25  80 S8        30.11R WCI  23
NEW ULM        CLOUDY    30  28  93 S12       30.08F WCI  21
ST JAMES       CLOUDY    34  28  80 SE12      30.10R WCI  25
FAIRMONT       CLOUDY    30  27  86 S12       30.08S WCI  21
GLENCOE        CLOUDY    31  29  90 S6        30.09S WCI  26
FARIBAULT      CLOUDY    30  28  93 S8        30.12R WCI  23
OWATONNA       CLOUDY    30  27  86 S8        30.11S WCI  23
WASECA         CLOUDY    32  30  93 S10       30.12R WCI  24
ALBERT LEA     CLOUDY    30  28  93 S7        30.11S FOG     WCI  23
$$
MNZ078>079-086>088-094>096-210000-
   Southeast Minnesota

CITY           SKY/WX    TMP DP  RH WIND       PRES   REMARKS
ROCHESTER      CLOUDY    30  27  88 S12       30.13S WCI  20
RED WING       CLOUDY    32  28  86 S6        30.14S FOG     WCI  26
STANTON        CLOUDY    33  28  84 S7        30.11S WCI  26
DODGE CENTER   CLOUDY    30  28  93 S10       30.11F WCI  21
WINONA         CLOUDY    34  32  93 SE3       30.17S FOG
AUSTIN         CLOUDY    30  28  93 S9        30.12S WCI  22
PRESTON        CLOUDY    30  28  95 S7        30.14S FOG     WCI  23
$$
ABBREVIATIONS USED IN REMARKS
   TC - TEMPERATURES IN CELSIUS
  WCI - WIND CHILL INDEX
   HX - HEAT INDEX
  VSB - VISIBILITY
$$



USA.gov is the U.S. government's official web portal to all federal, state and local government web resources and services.